Погода в Мекке

Саудовская Аравия     21°26′22″N   39°50′42″E
темп.,
°C
ветер,
м/с
пор.,
м/с
влажн.,
%
обл.,
%
осадки,
мм/ч
давл.,
гПа
погр.,
м
9 декабря, чт
чт900:00+24ссз347080 0.0 1016145
03:00+23ссз3471100 0.0 1015121
06:00+23ссз337492 0.0 1015101
09:00+25ссз446098 0.0 1017422
12:00+31зсз22285 0.0 10151006
15:00+34з4317100 0.0 10121877
18:00+26сз57505 0.0 1014263
21:00+24с346534 0.0 1015152
10 декабря, пт
пт1000:00+22ссз227526 0.0 101560
03:00+21ссз1176100 0.0 101450
06:00+21вюв116996 0.0 101546
09:00+26юв124362 0.0 1017336
12:00+30ююз32362 0.0 10151246
15:00+32ююз22245 0.0 10121905
18:00+27юз67535 0.0 1013238
21:00+24зсз11644 0.0 101592
11 декабря, сб
сб1100:00+23юз0067100 0.0 101490
03:00+22зюз1172100 0.0 101456
06:00+22ююв00729 0.0 101568
09:00+26ссв223199 0.0 1016316
12:00+29зсз11255 0.0 10151081
15:00+31ююз112010 0.0 10121860
18:00+28з564296 0.0 1014287
21:00+25св1166100 0.0 1016128
12 декабря, вс
вс1200:00+24сз007149 0.0 1016113
03:00+23ссз007585 0.0 1015115
06:00+22св1175100 0.0 101563
09:00+26св224897 0.0 1017347
12:00+30ююз22324 0.0 10151466
15:00+32ююз222592 0.0 10132223
18:00+26з576013 0.0 1014309
21:00+25с116346 0.0 1016122
13 декабря, пн
пн1300:00+24ссз2267100 0.0 1015112
03:00+23ссв11704 0.0 101486
06:00+22св2255100 0.0 101436
09:00+26св223078 0.0 1015240
12:00+31ююз34275 0.0 10131529
15:00+32ююз44225 0.0 10112278
18:00+26з455417 0.0 1013189
21:00+25ссв016010 0.0 1014127